NSZ1104 EKYT-EDDB

Flight info

Callsign NSZ1104
Flight time 0h 59m
Altitude 37000
Route SONAL DCT RODEP T280 KETAP
Aircraft B38M/M-SDE1FGHILORVWXY/HB1

Departure

Time 2026-05-08 20:27
Airport Aalborg Airport (EKYT)

Arrival

Time 2026-05-08 21:26
Airport Berlin Brandenburg Airport (EDDB)
Time Latitude Longitude Altitude Speed Heading
2026-05-08 20:00 57.08644 9.87054 21 ft 0 kts 55°
2026-05-08 20:16 57.08635 9.87030 24 ft 2 kts 50°
2026-05-08 20:16 57.08623 9.87008 26 ft 2 kts 39°
2026-05-08 20:16 57.08609 9.86993 22 ft 2 kts 10°
2026-05-08 20:16 57.08593 9.86997 22 ft 2 kts 328°
2026-05-08 20:17 57.08585 9.87008 23 ft 1 kts 317°
2026-05-08 20:20 57.08589 9.87001 22 ft 3 kts 317°
2026-05-08 20:20 57.08616 9.86952 22 ft 7 kts 315°
2026-05-08 20:21 57.08660 9.86873 23 ft 10 kts 316°
2026-05-08 20:21 57.08722 9.86771 21 ft 14 kts 321°
2026-05-08 20:21 57.08806 9.86649 21 ft 17 kts 322°
2026-05-08 20:21 57.08903 9.86504 21 ft 19 kts 321°
2026-05-08 20:22 57.09015 9.86347 21 ft 22 kts 323°
2026-05-08 20:22 57.09142 9.86171 21 ft 24 kts 323°
2026-05-08 20:22 57.09279 9.85976 23 ft 25 kts 322°
2026-05-08 20:22 57.09334 9.85884 21 ft 7 kts 299°
2026-05-08 20:23 57.09333 9.85731 21 ft 13 kts 262°
2026-05-08 20:23 57.09322 9.85547 21 ft 16 kts 263°
2026-05-08 20:23 57.09308 9.85327 21 ft 19 kts 263°
2026-05-08 20:23 57.09292 9.85069 21 ft 22 kts 263°
2026-05-08 20:24 57.09273 9.84781 21 ft 24 kts 263°
2026-05-08 20:24 57.09250 9.84440 21 ft 30 kts 263°
2026-05-08 20:24 57.09224 9.84049 23 ft 30 kts 263°
2026-05-08 20:24 57.09203 9.83728 21 ft 19 kts 263°
2026-05-08 20:25 57.09215 9.83557 25 ft 14 kts 309°
2026-05-08 20:25 57.09285 9.83421 23 ft 16 kts 318°
2026-05-08 20:25 57.09380 9.83469 24 ft 17 kts 67°
2026-05-08 20:25 57.09392 9.83576 21 ft 4 kts 81°
2026-05-08 20:26 57.09400 9.83717 21 ft 34 kts 84°
2026-05-08 20:26 57.09446 9.84557 23 ft 97 kts 85°
2026-05-08 20:26 57.09549 9.86139 25 ft 149 kts 84°
2026-05-08 20:26 57.09647 9.87996 222 ft 140 kts 88°
2026-05-08 20:27 57.09732 9.89774 547 ft 142 kts 86°
2026-05-08 20:27 57.09820 9.91649 921 ft 153 kts 89°
2026-05-08 20:27 57.09851 9.93676 1265 ft 164 kts 105°
2026-05-08 20:27 57.09461 9.95512 1906 ft 139 kts 123°
2026-05-08 20:28 57.08889 9.96898 2590 ft 138 kts 142°
2026-05-08 20:28 57.08095 9.97981 3069 ft 149 kts 146°
2026-05-08 20:28 57.07213 9.99151 3576 ft 163 kts 145°
2026-05-08 20:28 57.06253 10.00428 4127 ft 178 kts 145°
2026-05-08 20:29 57.05209 10.01829 4700 ft 194 kts 144°
2026-05-08 20:29 57.04076 10.03363 5255 ft 211 kts 144°
2026-05-08 20:29 57.02843 10.05047 5799 ft 230 kts 144°
2026-05-08 20:29 57.01514 10.06867 6438 ft 243 kts 144°
2026-05-08 20:30 57.00157 10.08714 7350 ft 243 kts 144°
2026-05-08 20:30 56.98794 10.10570 8229 ft 246 kts 144°
2026-05-08 20:30 56.97389 10.12484 8891 ft 258 kts 144°
2026-05-08 20:30 56.95902 10.14513 9436 ft 274 kts 144°
2026-05-08 20:31 56.95383 10.15220 9693 ft 276 kts 144°
2026-05-08 20:31 56.93626 10.17604 10683 ft 278 kts 144°
2026-05-08 20:31 56.92038 10.19756 11221 ft 292 kts 144°
2026-05-08 20:32 56.90350 10.22051 11631 ft 311 kts 144°
2026-05-08 20:32 56.88568 10.24473 12055 ft 326 kts 144°
2026-05-08 20:32 56.86710 10.26993 12642 ft 336 kts 144°
2026-05-08 20:32 56.84823 10.29535 13473 ft 339 kts 144°
2026-05-08 20:33 56.82905 10.32115 14179 ft 345 kts 144°
2026-05-08 20:33 56.80962 10.34724 14892 ft 349 kts 144°
2026-05-08 20:33 56.78996 10.37360 15601 ft 353 kts 144°
2026-05-08 20:33 56.77000 10.40034 16273 ft 358 kts 144°
2026-05-08 20:34 56.74974 10.42744 16941 ft 363 kts 144°
2026-05-08 20:34 56.72920 10.45487 17595 ft 368 kts 144°
2026-05-08 20:34 56.68735 10.51065 18800 ft 378 kts 144°
2026-05-08 20:35 56.66603 10.53901 19323 ft 381 kts 144°
2026-05-08 20:35 56.65187 10.55782 19684 ft 383 kts 144°
2026-05-08 20:35 56.62320 10.59585 20435 ft 387 kts 144°
2026-05-08 20:35 56.60847 10.61536 20816 ft 389 kts 144°
2026-05-08 20:36 56.57932 10.65391 21493 ft 393 kts 144°
2026-05-08 20:36 56.55713 10.68319 22025 ft 396 kts 144°
2026-05-08 20:36 56.54203 10.70310 22376 ft 398 kts 144°
2026-05-08 20:36 56.51955 10.73271 22847 ft 402 kts 144°
2026-05-08 20:37 56.49716 10.76216 23350 ft 404 kts 144°
2026-05-08 20:37 56.47401 10.79255 23848 ft 407 kts 144°
2026-05-08 20:37 56.45099 10.82273 24237 ft 410 kts 144°
2026-05-08 20:37 56.42812 10.85266 24614 ft 412 kts 144°
2026-05-08 20:38 56.40486 10.88305 25040 ft 414 kts 144°
2026-05-08 20:38 56.38142 10.91363 25457 ft 417 kts 144°
2026-05-08 20:38 56.35786 10.94434 25874 ft 419 kts 144°
2026-05-08 20:38 56.33419 10.97512 26253 ft 421 kts 144°
2026-05-08 20:39 56.31035 11.00608 26642 ft 423 kts 144°
2026-05-08 20:39 56.28643 11.03710 26989 ft 426 kts 144°
2026-05-08 20:39 56.26234 11.06827 27392 ft 427 kts 144°
2026-05-08 20:39 56.23813 11.09958 27700 ft 430 kts 144°
2026-05-08 20:40 56.21378 11.13101 28016 ft 432 kts 145°
2026-05-08 20:40 56.18930 11.16252 28325 ft 434 kts 145°
2026-05-08 20:40 56.16475 11.19410 28659 ft 436 kts 144°
2026-05-08 20:40 56.14001 11.22586 29018 ft 438 kts 145°
2026-05-08 20:41 56.11519 11.25768 29293 ft 440 kts 145°
2026-05-08 20:41 56.09028 11.28956 29617 ft 441 kts 145°
2026-05-08 20:41 56.06522 11.32159 29845 ft 444 kts 145°
2026-05-08 20:41 56.04002 11.35375 30165 ft 445 kts 145°
2026-05-08 20:42 56.01475 11.38592 30449 ft 446 kts 145°
2026-05-08 20:42 55.98938 11.41817 30633 ft 449 kts 145°
2026-05-08 20:42 55.96394 11.45047 30862 ft 450 kts 145°
2026-05-08 20:42 55.93835 11.48289 31072 ft 452 kts 145°
2026-05-08 20:43 55.91267 11.51539 31271 ft 454 kts 145°
2026-05-08 20:43 55.88682 11.54803 31509 ft 456 kts 145°
2026-05-08 20:43 55.86084 11.58080 31686 ft 458 kts 145°
2026-05-08 20:43 55.83482 11.61355 31927 ft 460 kts 145°
2026-05-08 20:44 55.80863 11.64647 32142 ft 462 kts 145°
2026-05-08 20:44 55.78236 11.67943 32374 ft 464 kts 145°
2026-05-08 20:44 55.75595 11.71250 32596 ft 465 kts 146°
2026-05-08 20:44 55.72954 11.74552 32894 ft 465 kts 146°
2026-05-08 20:45 55.70308 11.77854 33159 ft 465 kts 146°
2026-05-08 20:45 55.67663 11.81151 33435 ft 465 kts 146°
2026-05-08 20:45 55.65018 11.84438 33714 ft 465 kts 146°
2026-05-08 20:45 55.62379 11.87715 33997 ft 464 kts 146°
2026-05-08 20:46 55.59725 11.91007 34269 ft 465 kts 146°
2026-05-08 20:46 55.57082 11.94277 34504 ft 464 kts 146°
2026-05-08 20:46 55.54507 11.97458 34692 ft 465 kts 146°
2026-05-08 20:46 55.51890 12.00688 34922 ft 465 kts 146°
2026-05-08 20:47 55.49241 12.03948 35124 ft 465 kts 146°
2026-05-08 20:47 55.46573 12.07229 35297 ft 466 kts 146°
2026-05-08 20:47 55.43913 12.10495 35469 ft 466 kts 146°
2026-05-08 20:47 55.41252 12.13755 35673 ft 467 kts 147°
2026-05-08 20:48 55.38582 12.17022 35882 ft 467 kts 147°
2026-05-08 20:48 55.35920 12.20272 36090 ft 467 kts 147°
2026-05-08 20:48 55.33254 12.23525 36279 ft 467 kts 147°
2026-05-08 20:48 55.30612 12.26740 36448 ft 467 kts 147°
2026-05-08 20:49 55.27938 12.29990 36622 ft 468 kts 147°
2026-05-08 20:49 55.25270 12.33227 36802 ft 468 kts 147°
2026-05-08 20:49 55.22585 12.36479 36962 ft 468 kts 147°
2026-05-08 20:49 55.19873 12.39761 37128 ft 468 kts 147°
2026-05-08 20:50 55.17230 12.42950 37271 ft 467 kts 147°
2026-05-08 20:50 55.11895 12.49376 37277 ft 466 kts 147°
2026-05-08 20:51 55.06555 12.55785 37276 ft 465 kts 147°
2026-05-08 20:51 55.01224 12.62164 37273 ft 465 kts 147°
2026-05-08 20:52 54.95883 12.68534 37281 ft 466 kts 147°
2026-05-08 20:52 54.90532 12.74894 37271 ft 465 kts 147°
2026-05-08 20:53 54.85131 12.81036 37261 ft 461 kts 159°
2026-05-08 20:53 54.79206 12.85259 37303 ft 461 kts 157°
2026-05-08 20:54 54.73370 12.89946 37280 ft 463 kts 157°
2026-05-08 20:54 54.67547 12.94685 37277 ft 463 kts 157°
2026-05-08 20:55 54.61698 12.99441 37272 ft 464 kts 157°
2026-05-08 20:55 54.55896 13.04143 37271 ft 464 kts 157°
2026-05-08 20:56 54.50005 13.08902 37264 ft 464 kts 157°
2026-05-08 20:56 54.44154 13.13614 37262 ft 464 kts 157°
2026-05-08 20:57 54.38341 13.18281 37258 ft 464 kts 157°
2026-05-08 20:57 54.32490 13.22963 37258 ft 465 kts 157°
2026-05-08 20:58 54.26620 13.27645 37259 ft 465 kts 157°
2026-05-08 20:58 54.20760 13.32305 37252 ft 465 kts 157°
2026-05-08 20:59 54.14900 13.36950 37251 ft 464 kts 157°
2026-05-08 20:59 54.09030 13.41590 37247 ft 465 kts 157°
2026-05-08 21:00 54.03163 13.46211 37246 ft 464 kts 158°
2026-05-08 21:00 53.97294 13.50817 36642 ft 468 kts 158°
2026-05-08 21:00 53.94321 13.53147 35760 ft 472 kts 158°
2026-05-08 21:01 53.91354 13.55470 35208 ft 468 kts 158°
2026-05-08 21:01 53.88396 13.57780 34478 ft 469 kts 158°
2026-05-08 21:01 53.85427 13.60094 33595 ft 471 kts 158°
2026-05-08 21:01 53.82455 13.62408 32815 ft 470 kts 158°
2026-05-08 21:02 53.79479 13.64723 32093 ft 469 kts 158°
2026-05-08 21:02 53.76531 13.67012 31507 ft 465 kts 158°
2026-05-08 21:02 53.73611 13.69277 30922 ft 461 kts 158°
2026-05-08 21:02 53.70687 13.71462 30241 ft 457 kts 163°
2026-05-08 21:03 53.67596 13.72547 29339 ft 451 kts 181°
2026-05-08 21:03 53.64495 13.72473 28888 ft 440 kts 185°
2026-05-08 21:03 53.61457 13.72292 28359 ft 434 kts 185°
2026-05-08 21:03 53.58460 13.72051 27772 ft 430 kts 186°
2026-05-08 21:04 53.55483 13.71780 27203 ft 426 kts 186°
2026-05-08 21:04 53.52533 13.71491 26629 ft 423 kts 186°
2026-05-08 21:04 53.49601 13.71196 26064 ft 420 kts 186°
2026-05-08 21:04 53.46730 13.70906 25511 ft 418 kts 186°
2026-05-08 21:05 53.43804 13.70609 24949 ft 415 kts 186°
2026-05-08 21:05 53.40967 13.70322 24403 ft 412 kts 186°
2026-05-08 21:05 53.38116 13.70034 23847 ft 410 kts 186°
2026-05-08 21:05 53.35278 13.69747 23213 ft 407 kts 186°
2026-05-08 21:06 53.32467 13.69463 22638 ft 403 kts 186°
2026-05-08 21:06 53.29678 13.69182 22095 ft 399 kts 186°
2026-05-08 21:06 53.26929 13.68905 21562 ft 395 kts 186°
2026-05-08 21:06 53.24197 13.68631 21040 ft 392 kts 186°
2026-05-08 21:07 53.21478 13.68358 20514 ft 390 kts 185°
2026-05-08 21:07 53.18787 13.68088 20233 ft 382 kts 185°
2026-05-08 21:07 53.16193 13.67828 20228 ft 367 kts 186°
2026-05-08 21:07 53.13672 13.67579 20234 ft 359 kts 186°
2026-05-08 21:08 53.11137 13.67322 20212 ft 371 kts 186°
2026-05-08 21:08 53.08522 13.67060 20218 ft 383 kts 186°
2026-05-08 21:08 53.05853 13.66794 20206 ft 390 kts 186°
2026-05-08 21:08 53.03104 13.66519 20217 ft 395 kts 186°
2026-05-08 21:09 53.00361 13.66245 19979 ft 394 kts 186°
2026-05-08 21:09 52.97470 13.65950 18389 ft 435 kts 186°
2026-05-08 21:09 52.94412 13.65626 17277 ft 437 kts 187°
2026-05-08 21:09 52.91605 13.64526 17477 ft 390 kts 204°
2026-05-08 21:10 52.89291 13.62632 17494 ft 358 kts 209°
2026-05-08 21:10 52.87087 13.60807 16738 ft 351 kts 208°
2026-05-08 21:10 52.84895 13.59004 15714 ft 354 kts 208°
2026-05-08 21:10 52.82656 13.57167 14961 ft 361 kts 208°
2026-05-08 21:11 52.80418 13.55332 14595 ft 357 kts 208°
2026-05-08 21:11 52.78195 13.53511 14096 ft 356 kts 207°
2026-05-08 21:11 52.75992 13.51709 13742 ft 350 kts 207°
2026-05-08 21:11 52.73840 13.49952 13538 ft 340 kts 207°
2026-05-08 21:12 52.71730 13.48232 13345 ft 346 kts 207°
2026-05-08 21:12 52.69615 13.46506 13276 ft 331 kts 207°
2026-05-08 21:12 52.67577 13.44856 13270 ft 328 kts 206°
2026-05-08 21:12 52.65527 13.43198 13325 ft 326 kts 207°
2026-05-08 21:13 52.63507 13.41547 13098 ft 317 kts 207°
2026-05-08 21:13 52.61545 13.39949 12529 ft 320 kts 207°
2026-05-08 21:13 52.59572 13.38347 11958 ft 312 kts 207°
2026-05-08 21:13 52.57650 13.36788 11421 ft 304 kts 207°
2026-05-08 21:14 52.55772 13.35268 10877 ft 298 kts 207°
2026-05-08 21:14 52.53930 13.33779 10340 ft 292 kts 207°
2026-05-08 21:14 52.52119 13.32316 9769 ft 288 kts 207°
2026-05-08 21:14 52.50391 13.30732 9179 ft 283 kts 218°
2026-05-08 21:15 52.49068 13.28404 8606 ft 277 kts 237°
2026-05-08 21:15 52.48135 13.25664 8047 ft 273 kts 244°
2026-05-08 21:15 52.47330 13.22863 7504 ft 270 kts 246°
2026-05-08 21:15 52.46569 13.20054 6940 ft 269 kts 247°
2026-05-08 21:16 52.45838 13.17283 6446 ft 263 kts 247°
2026-05-08 21:16 52.45120 13.14535 5859 ft 260 kts 247°
2026-05-08 21:16 52.44412 13.11819 5300 ft 256 kts 247°
2026-05-08 21:16 52.43725 13.09180 4997 ft 243 kts 247°
2026-05-08 21:17 52.43099 13.06770 4978 ft 218 kts 246°
2026-05-08 21:17 52.42263 13.04789 4970 ft 214 kts 220°
2026-05-08 21:17 52.40950 13.03648 5004 ft 213 kts 194°
2026-05-08 21:17 52.39500 13.03611 4985 ft 212 kts 167°
2026-05-08 21:18 52.38106 13.04423 4984 ft 213 kts 156°
2026-05-08 21:18 52.36779 13.05360 4817 ft 200 kts 156°
2026-05-08 21:18 52.35548 13.06234 4631 ft 188 kts 155°
2026-05-08 21:18 52.34368 13.07057 4430 ft 182 kts 155°
2026-05-08 21:19 52.33220 13.07850 4228 ft 174 kts 156°
2026-05-08 21:19 52.32182 13.08651 4021 ft 157 kts 141°
2026-05-08 21:19 52.31565 13.10097 3988 ft 163 kts 109°
2026-05-08 21:19 52.31232 13.11887 4044 ft 165 kts 105°
2026-05-08 21:20 52.30927 13.13692 4009 ft 164 kts 104°
2026-05-08 21:20 52.30624 13.15491 3989 ft 164 kts 105°
2026-05-08 21:20 52.30321 13.17281 3988 ft 164 kts 105°
2026-05-08 21:20 52.30071 13.19095 3858 ft 163 kts 91°
2026-05-08 21:21 52.30232 13.20909 3677 ft 162 kts 74°
2026-05-08 21:21 52.30600 13.22611 3496 ft 155 kts 69°
2026-05-08 21:21 52.30984 13.24203 3306 ft 151 kts 69°
2026-05-08 21:21 52.31363 13.25793 3125 ft 150 kts 69°
2026-05-08 21:22 52.31745 13.27387 2921 ft 150 kts 69°
2026-05-08 21:22 52.32116 13.28953 2725 ft 149 kts 69°
2026-05-08 21:22 52.32497 13.30553 2521 ft 149 kts 69°
2026-05-08 21:22 52.32869 13.32114 2323 ft 149 kts 69°
2026-05-08 21:23 52.33247 13.33699 2123 ft 150 kts 69°
2026-05-08 21:23 52.33626 13.35293 1920 ft 150 kts 69°
2026-05-08 21:23 52.33995 13.36845 1716 ft 139 kts 69°
2026-05-08 21:23 52.34340 13.38271 1517 ft 133 kts 68°
2026-05-08 21:24 52.34692 13.39733 1398 ft 140 kts 68°
2026-05-08 21:24 52.35042 13.41224 1187 ft 141 kts 69°
2026-05-08 21:24 52.35398 13.42742 959 ft 142 kts 68°
2026-05-08 21:24 52.35755 13.44218 744 ft 138 kts 68°
2026-05-08 21:25 52.36099 13.45657 563 ft 136 kts 68°
2026-05-08 21:25 52.36444 13.47098 378 ft 136 kts 69°
2026-05-08 21:25 52.36665 13.48049 258 ft 134 kts 69°
2026-05-08 21:25 52.36993 13.49436 158 ft 123 kts 69°
2026-05-08 21:26 52.37258 13.50558 160 ft 84 kts 69°
2026-05-08 21:26 52.37404 13.51173 165 ft 36 kts 69°
2026-05-08 21:26 52.37452 13.51535 161 ft 24 kts 91°
2026-05-08 21:26 52.37445 13.51691 162 ft 11 kts 96°
2026-05-08 21:27 52.37429 13.51838 160 ft 16 kts 98°
2026-05-08 21:27 52.37370 13.51950 162 ft 14 kts 199°
2026-05-08 21:27 52.37319 13.51828 163 ft 14 kts 249°
2026-05-08 21:27 52.37278 13.51656 162 ft 18 kts 248°
2026-05-08 21:28 52.37238 13.51482 163 ft 13 kts 250°
2026-05-08 21:28 52.37207 13.51342 161 ft 15 kts 250°
2026-05-08 21:28 52.37164 13.51163 160 ft 19 kts 248°
2026-05-08 21:28 52.37109 13.50939 157 ft 23 kts 248°
2026-05-08 21:29 52.37047 13.50682 158 ft 25 kts 253°
2026-05-08 21:29 52.36998 13.50462 162 ft 15 kts 249°
2026-05-08 21:29 52.36960 13.50295 161 ft 18 kts 250°
2026-05-08 21:29 52.36921 13.50146 161 ft 8 kts 230°
2026-05-08 21:30 52.36861 13.50138 160 ft 11 kts 159°
2026-05-08 21:30 52.36775 13.50188 158 ft 14 kts 159°
2026-05-08 21:30 52.36691 13.50241 156 ft 11 kts 158°
2026-05-08 21:30 52.36616 13.50290 156 ft 13 kts 158°
2026-05-08 21:31 52.36523 13.50354 156 ft 15 kts 157°
2026-05-08 21:31 52.36500 13.50472 157 ft 11 kts 86°
2026-05-08 21:31 52.36509 13.50561 159 ft 0 kts 73°